Imperial, NE

3:18 AM MDT on March 23, 2017 (GMT -0600)
Imperial Municipal

Weather History for KIML - September, 2012

Change the Weather History Date:

Monday, September 24, 2012

  Actual Average Record
Temperature  
Mean Temperature 64 °F 61 °F  
Max Temperature 82 °F 76 °F 91 °F (2003)
Min Temperature 46 °F 46 °F 26 °F (1926)
Degree Days  
Heating Degree Days 1 6  
Month to date heating degree days 46 66  
Cooling Degree Days 0 1  
Month to date cooling degree days 104 84  
Year to date cooling degree days 1376 950  
Growing Degree Days 14 (Base 50)    
Moisture  
Dew Point 38 °F    
Average Humidity 45    
Maximum Humidity 66    
Minimum Humidity 23    
Precipitation  
Precipitation 0.00 in 0.03 in 1.35 in (1906)
Sea Level Pressure  
Sea Level Pressure 29.94 in    
Wind  
Wind Speed 5 mph (SE)    
Max Wind Speed 5 mph    
Max Gust Speed 5 mph    
Visibility 10 miles    
Events      
T = Trace of Precipitation, MM = Missing Value Source: NWS Daily Summary

Daily Weather History Graph

Daily Weather History Graph

Search for Another Location

Airport or City:

Trip Planner

Search our weather history database for the weather conditions in past years. The results will help you decide how hot, cold, wet, or windy it might be!

Date:

Astronomy

Sep. 24, 2012 Rise Set
Actual Time 6:36 AM MDT 6:39 PM MDT
Civil Twilight 6:09 AM MDT 7:06 PM MDT
Nautical Twilight 5:37 AM MDT 7:38 PM MDT
Astronomical Twilight 5:05 AM MDT 8:10 PM MDT
Moon 3:27 PM MDT (9/24) 12:54 AM MDT (9/24)
Length of Visible Light 12h 57m
Length of Day
12h 02m
Waxing Gibbous, 71% of the Moon is Illuminated
Sep 24
Waxing Gibbous
Sep 29
Full
Oct 8
Last Quarter
Oct 15
New
Oct 21
First Quarter

Hourly Weather History & Observations

Time (MDT) Temp. Dew Point Humidity Pressure Visibility Wind Dir Wind Speed Gust Speed Precip Events Conditions
12:53 AM 48.0 °F 30.9 °F 52% 30.07 in 10.0 mi SE 6.9 mph - N/A   Clear
1:53 AM 46.9 °F 33.1 °F 59% 30.06 in 10.0 mi SSE 6.9 mph - N/A   Clear
2:53 AM 48.0 °F 34.0 °F 58% 30.04 in 10.0 mi SE 5.8 mph - N/A   Clear
3:53 AM 50.0 °F 36.0 °F 59% 30.02 in 10.0 mi ESE 3.5 mph - N/A   Clear
4:53 AM 48.9 °F 36.0 °F 61% 29.99 in 10.0 mi SSE 11.5 mph - N/A   Clear
5:53 AM 48.0 °F 36.0 °F 63% 30.01 in 10.0 mi Calm Calm - N/A   Clear
6:53 AM 46.9 °F 36.0 °F 66% 30.02 in 10.0 mi Calm Calm - N/A   Clear
7:53 AM 54.0 °F 37.9 °F 55% 30.01 in 10.0 mi South 9.2 mph - N/A   Clear
8:53 AM 59.0 °F 37.0 °F 44% 30.00 in 10.0 mi South 6.9 mph - N/A   Clear
9:53 AM 64.9 °F 37.9 °F 37% 29.99 in 10.0 mi SW 11.5 mph - N/A   Clear
10:53 AM 66.9 °F 39.0 °F 36% 29.97 in 10.0 mi West 8.1 mph - N/A   Clear
11:53 AM 72.0 °F 39.0 °F 30% 29.94 in 10.0 mi West 5.8 mph - N/A   Clear
12:53 PM 73.9 °F 39.9 °F 29% 29.91 in 10.0 mi WNW 4.6 mph - N/A   Clear
1:53 PM 77.0 °F 39.9 °F 26% 29.87 in 10.0 mi Calm Calm - N/A   Clear
2:53 PM 81.0 °F 39.9 °F 23% 29.83 in 10.0 mi Variable 4.6 mph - N/A   Clear
3:53 PM 80.1 °F 39.9 °F 24% 29.83 in 10.0 mi NE 6.9 mph - N/A   Clear
4:53 PM 80.1 °F 39.0 °F 23% 29.83 in 10.0 mi ENE 5.8 mph - N/A   Clear
5:53 PM 75.0 °F 39.9 °F 28% 29.85 in 10.0 mi ENE 5.8 mph - N/A   Clear
6:53 PM 66.0 °F 41.0 °F 40% 29.87 in 10.0 mi ESE 6.9 mph - N/A   Clear
7:53 PM 60.1 °F 42.1 °F 51% 29.88 in 10.0 mi SE 5.8 mph - N/A   Clear
8:53 PM 57.0 °F 42.1 °F 57% 29.89 in 10.0 mi SE 4.6 mph - N/A   Clear
9:53 PM 55.0 °F 42.1 °F 62% 29.89 in 10.0 mi Calm Calm - N/A   Clear
10:53 PM 54.0 °F 42.1 °F 64% 29.88 in 10.0 mi Calm Calm - N/A   Unknown
11:53 PM 55.4 °F 42.8 °F 63% 29.92 in 10.0 mi NE 3.5 mph - N/A   Clear